Los Angeles Downtown, CA

5:40 PM PDT on June 21, 2018 (GMT -0700)
Los Angeles Downtown

Weather History for KCQT - June, 2018

Change the Weather History Date:

Wednesday, June 13, 2018

  Actual Average Record
Temperature  
Mean Temperature 71 °F 69 °F  
Max Temperature 80 °F 77 °F 99 °F (1896)
Min Temperature 61 °F 60 °F 46 °F (1894)
Degree Days  
Heating Degree Days 0 0  
Month to date heating degree days 0 6  
Since 1 June heating degree days 0 6  
Since 1 July heating degree days 643 1082  
Cooling Degree Days 6 4  
Month to date cooling degree days 64 43  
Year to date cooling degree days 182 197  
Since 1 June cooling degree days 64 43  
Growing Degree Days 20 (Base 50)    
Moisture  
Dew Point 60 °F    
Average Humidity 74    
Maximum Humidity 93    
Minimum Humidity 54    
Precipitation  
Precipitation 0.00 in 0.00 in 0.53 in (1884)
Month to date precipitation 0.00 0.06  
Year to date precipitation 4.60 10.58  
Sea Level Pressure  
Sea Level Pressure 29.82 in    
Wind  
Wind Speed 1 mph (West)    
Max Wind Speed 8 mph    
Max Gust Speed 12 mph    
Visibility 7 miles    
Events      
T = Trace of Precipitation, MM = Missing Value Source: NWS Daily Summary

Daily Weather History Graph

Daily Weather History Graph

Search for Another Location

Airport or City:

Astronomy

Jun. 13, 2018 Rise Set
Actual Time 5:41 AM PDT 8:05 PM PDT
Civil Twilight 5:11 AM PDT 8:34 PM PDT
Nautical Twilight 4:35 AM PDT 9:10 PM PDT
Astronomical Twilight 3:56 AM PDT 9:49 PM PDT
Moon 5:43 AM PDT (6/13) 8:08 PM PDT (6/13)
Length of Visible Light 15h 22m
Length of Day
14h 24m
Waning Crescent, 0% of the Moon is Illuminated
Jun 13
Waning Crescent
Jun 13
New
Jun 20
First Quarter
Jun 27
Full
Jul 6
Last Quarter

Hourly Weather History & Observations

Time (PDT) Temp. Dew Point Humidity Pressure Visibility Wind Dir Wind Speed Gust Speed Precip Events Conditions
12:47 AM 64.0 °F 60.1 °F 87% 29.82 in 10.0 mi Calm Calm - N/A   Clear
1:47 AM 63.0 °F 60.1 °F 90% 29.80 in 9.0 mi Calm Calm - N/A   Clear
3:47 AM 62.1 °F 59.0 °F 90% 29.79 in 8.0 mi Calm Calm - N/A   Clear
4:28 AM 62.1 °F 57.9 °F 86% 29.80 in 8.0 mi Calm Calm - N/A   Mostly Cloudy
4:47 AM 62.1 °F 57.9 °F 86% 29.80 in 7.0 mi Calm Calm - N/A   Mostly Cloudy
5:08 AM 61.0 °F 57.9 °F 90% 29.81 in 7.0 mi Calm Calm - N/A   Scattered Clouds
6:11 AM 62.1 °F 59.0 °F 90% 29.82 in 2.5 mi Calm Calm - N/A   Overcast
6:18 AM 62.1 °F 59.0 °F 90% 29.82 in 3.0 mi Calm Calm - N/A   Overcast
6:23 AM 62.1 °F 59.0 °F 90% 29.82 in 2.5 mi Calm Calm - N/A   Overcast
6:33 AM 62.1 °F 59.0 °F 90% 29.82 in 3.0 mi Calm Calm - N/A   Overcast
6:47 AM 62.1 °F 59.0 °F 90% 29.82 in 3.0 mi Calm Calm - N/A   Overcast
7:37 AM 62.1 °F 60.1 °F 93% 29.84 in 2.5 mi Calm Calm - N/A   Overcast
7:47 AM 63.0 °F 60.1 °F 90% 29.84 in 2.5 mi Calm Calm - N/A   Overcast
7:58 AM 63.0 °F 60.1 °F 90% 29.84 in 3.0 mi Calm Calm - N/A   Overcast
8:36 AM 64.0 °F 60.1 °F 87% 29.84 in 4.0 mi Calm Calm - N/A   Overcast
8:47 AM 66.0 °F 61.0 °F 84% 29.84 in 4.0 mi Calm Calm - N/A   Haze
9:20 AM 68.0 °F 61.0 °F 78% 29.84 in 4.0 mi Variable 3.5 mph - N/A   Haze
9:34 AM 69.1 °F 61.0 °F 75% 29.84 in 4.0 mi Calm Calm - N/A   Haze
9:47 AM 70.0 °F 61.0 °F 73% 29.83 in 5.0 mi Calm Calm - N/A   Haze
10:47 AM 75.9 °F 60.1 °F 58% 29.82 in 6.0 mi Calm Calm - N/A   Haze
11:47 AM 79.0 °F 61.0 °F 54% 29.83 in 9.0 mi Variable 3.5 mph - N/A   Clear
12:47 PM 79.0 °F 60.1 °F 52% 29.83 in 10.0 mi SW 3.5 mph - N/A   Clear
1:47 PM 77.0 °F 60.1 °F 56% 29.83 in 10.0 mi Calm Calm - N/A   Clear
2:47 PM 77.0 °F 60.1 °F 56% 29.81 in 10.0 mi Variable 4.6 mph - N/A   Clear
3:47 PM 77.0 °F 60.1 °F 56% 29.80 in 10.0 mi Calm Calm - N/A   Clear
4:47 PM 77.0 °F 59.0 °F 54% 29.79 in 10.0 mi WSW 4.6 mph - N/A   Clear
5:47 PM 75.0 °F 59.0 °F 57% 29.78 in 10.0 mi Calm Calm - N/A   Clear
6:47 PM 73.9 °F 59.0 °F 59% 29.78 in 10.0 mi West 4.6 mph - N/A   Clear
7:47 PM 70.0 °F 59.0 °F 68% 29.78 in 10.0 mi West 4.6 mph - N/A   Clear
9:47 PM 64.9 °F 59.0 °F 81% 29.81 in 10.0 mi Calm Calm - N/A   Clear
10:47 PM 64.9 °F 59.0 °F 81% 29.81 in 10.0 mi Variable 3.5 mph - N/A   Clear
11:47 PM 64.0 °F 59.0 °F 84% 29.82 in 10.0 mi Calm Calm - N/A   Clear